Weather reports worldwide

Advertisment
Görlitz, Germany (10499): temperature & dewpoint: 13.01.2021 06:00:00 - 19.01.2021 06:00:00 (CET)Görlitz, Germany (10499): temperature 5cm & temperature -5cm: 13.01.2021 06:00:00 - 19.01.2021 06:00:00 (CET)Görlitz, Germany (10499): temperature -20cm & temperature -100cm: 13.01.2021 06:00:00 - 19.01.2021 06:00:00 (CET)Görlitz, Germany (10499): wind speed & gusts: 13.01.2021 06:00:00 - 19.01.2021 06:00:00 (CET)Görlitz, Germany (10499): wind direction: 13.01.2021 06:00:00 - 19.01.2021 06:00:00 (CET)Görlitz, Germany (10499): reduced air pressure: 13.01.2021 06:00:00 - 19.01.2021 06:00:00 (CET)Görlitz, Germany (10499): visibility: 13.01.2021 06:00:00 - 19.01.2021 06:00:00 (CET)Görlitz, Germany (10499): sunshine duration: 13.01.2021 06:00:00 - 19.01.2021 06:00:00 (CET)Görlitz, Germany (10499): precipitation: 13.01.2021 06:00:00 - 19.01.2021 06:00:00 (CET)
Date & Time tt [°C] td [°C] tt 5cm [°C] tt -5cm [°C] tt -20cm [°C] tt -100cm [°C] ff [km/h] ff [kn] fx [km/h] fx [kn] dd ppp [hPa] vv [km] sd [min] rr [mm]
19.01.2021 06:00:00 1,9 -0,1 0,1 0,6 1,4 4,4 16 8 22 12 SW 1016,7 52 0 0,0
19.01.2021 05:00:00 1,7 0,0 0,1 0,6 1,4 4,4 14 8 25 14 SW 1016,9 37 0 0,0
19.01.2021 04:00:00 1,8 0,3 0,1 0,6 1,4 4,4 17 9 24 13 SW 1017,3 45 0 0,0
19.01.2021 03:00:00 1,4 0,3 0,1 0,6 1,4 4,4 16 9 29 16 WSW 1017,5 26 0 0,2
19.01.2021 02:00:00 1,3 0,3 0,1 0,7 1,4 4,4 18 10 39 21 WSW 1017,8 12 0 0,2
19.01.2021 01:00:00 1,8 0,3 0,0 0,7 1,4 4,4 22 12 34 18 WSW 1017,8 26 0 0,1
19.01.2021 00:00:00 1,3 0,3 0,0 0,7 1,4 4,4 18 10 29 16 WSW 1018,1 26 0 0,3
18.01.2021 23:00:00 1,4 0,2 0,0 0,7 1,4 4,4 16 9 24 13 WSW 1018,5 17 0 0,3
18.01.2021 22:00:00 1,2 0,2 0,0 0,7 1,4 4,4 17 9 25 14 WSW 1018,9 10 0 0,3
18.01.2021 21:00:00 1,1 0,2 0,0 0,7 1,4 4,4 18 10 25 13 WSW 1019,0 18 0 0,3
18.01.2021 20:00:00 0,8 0,0 0,0 0,7 1,4 4,4 14 8 25 14 SW 1019,2 12 0 0,1
18.01.2021 19:00:00 1,2 -0,3 0,0 0,7 1,4 4,4 15 8 23 12 SW 1019,4 21 0 0,0
18.01.2021 18:00:00 1,2 -0,3 0,0 0,7 1,4 4,4 14 7 21 11 SW 1019,6 25 0 0,0
18.01.2021 17:00:00 1,2 -0,2 0,0 0,6 1,4 4,4 12 6 23 12 WSW 1019,7 25 0 0,0
18.01.2021 16:00:00 1,0 0,0 0,0 0,6 1,4 4,4 16 9 27 15 W 1019,9 10 0 0,1
18.01.2021 15:00:00 -1,6 -1,9 -0,1 0,6 1,4 4,4 6 3 13 7 SSE 1020,2 4,1 0 0,9
18.01.2021 14:00:00 -2,1 -2,8 -0,1 0,6 1,4 4,4 10 5 16 9 SSW 1020,4 1,8 0 0,5
18.01.2021 13:00:00 -3,3 -4,3 -0,3 0,7 1,4 4,5 9 5 16 9 S 1020,9 1,9 0 0,6
18.01.2021 12:00:00 -3,6 -5,1 -0,2 0,7 1,4 4,5 8 4 20 11 S 1021,3 6 0 0,0
18.01.2021 11:00:00 -3,8 -5,5 -0,5 0,7 1,4 4,4 11 6 18 10 S 1021,5 10 0 0,0
18.01.2021 10:00:00 -4,9 -6,7 -1,1 0,6 1,4 4,4 10 5 18 10 SSW 1022,0 6 0 0,0
18.01.2021 09:00:00 -5,0 -7,5 -1,9 0,6 1,4 4,4 11 6 18 10 SW 1022,0 25 0 0,0
18.01.2021 08:00:00 -6,1 -8,1 -2,8 0,6 1,4 4,4 6 4 13 7 SW 1022,0 24 0 0,0
18.01.2021 07:00:00 -6,8 -8,3 -3,5 0,6 1,4 4,4 3 1 10 5 W 1021,8 23 0 0,0
18.01.2021 06:00:00 -8,0 -8,9 -4,7 0,6 1,4 4,4 3 2 7 4 SSW 1021,9 24 0 0,0
18.01.2021 05:00:00 -9,4 -10,5 -5,5 0,7 1,4 4,4 3 2 7 4 WSW 1022,5 19 0 0,0
18.01.2021 04:00:00 -9,2 -10,4 -5,8 0,6 1,4 4,4 7 4 17 9 S 1022,6 19 0 0,0
18.01.2021 03:00:00 -10,3 -10,8 -6,0 0,6 1,3 4,4 8 4 11 6 S 1023,0 7 0 0,0
18.01.2021 02:00:00 -9,5 -10,1 -5,4 0,6 1,3 4,4 3 1 8 4 S 1023,1 6 0 0,0
18.01.2021 01:00:00 -9,1 -9,4 -4,4 0,6 1,3 4,4 4 2 9 5 S 1023,5 4,3 0 0,0
18.01.2021 00:00:00 -8,8 -10,1 -3,2 0,6 1,4 4,4 6 3 8 4 S 1023,9 6 0 0,0
17.01.2021 23:00:00 -7,4 -8,9 -2,6 0,6 1,4 4,4 4 2 7 4 SE 1023,4 9 0 0,0
17.01.2021 22:00:00 -7,5 -9,0 -2,9 0,6 1,4 4,4 5 3 9 5 ESE 1023,6 9 0 0,0
17.01.2021 21:00:00 -8,2 -9,6 -3,1 0,6 1,4 4,5 5 3 6 4 ESE 1023,8 8 0 0,0
17.01.2021 20:00:00 -8,0 -9,8 -2,8 0,6 1,4 4,4 4 2 8 5 WNW 1023,7 9 0 0,0
17.01.2021 19:00:00 -8,1 -10,0 -2,7 0,7 1,4 4,5 6 3 13 7 NE 1023,4 10 0 0,0
17.01.2021 18:00:00 -7,4 -9,6 -1,9 0,7 1,4 4,5 10 5 16 9 NE 1022,8 12 0 0,0
17.01.2021 17:00:00 -6,5 -8,8 -1,5 0,7 1,4 4,5 10 5 16 9 NE 1022,1 12 0 0,0
17.01.2021 16:00:00 -5,8 -8,2 -0,7 0,6 1,4 4,5 11 6 14 8 NE 1021,7 12 0 0,0
17.01.2021 15:00:00 -4,8 -7,3 -0,1 0,6 1,4 4,5 8 4 13 7 ENE 1021,1 13 9 0,0
17.01.2021 14:00:00 -4,6 -7,3 0,1 0,6 1,4 4,5 10 5 18 10 NE 1020,8 12 3 0,0
17.01.2021 13:00:00 -3,3 -5,9 0,0 0,6 1,4 4,5 7 4 11 6 NNW 1020,5 22 0 0,0
17.01.2021 12:00:00 -3,6 -6,3 -0,1 0,7 1,4 4,5 6 3 13 7 NW 1020,3 25 0 0,0
17.01.2021 11:00:00 -3,8 -6,3 -0,3 0,7 1,4 4,5 6 4 16 8 NW 1020,0 31 0 0,0
17.01.2021 10:00:00 -4,2 -6,5 -0,9 0,7 1,4 4,5 6 3 13 7 WNW 1019,5 28 0 0,0
17.01.2021 09:00:00 -4,6 -6,8 -1,2 0,7 1,4 4,5 8 4 14 7 WNW 1019,3 29 0 0,0
17.01.2021 08:00:00 -4,7 -6,9 -1,3 0,6 1,4 4,5 8 4 14 8 WNW 1019,1 34 0 0,0
17.01.2021 07:00:00 -4,8 -7,0 -1,3 0,7 1,4 4,5 8 4 15 8 WNW 1018,7 30 0 0,0
17.01.2021 06:00:00 -4,6 -7,2 -1,3 0,7 1,4 4,5 6 4 16 9 WNW 1018,6 33 0 0,0
17.01.2021 05:00:00 -4,5 -7,3 -1,3 0,7 1,4 4,5 10 5 18 10 WNW 1018,2 26 0 0,0
17.01.2021 04:00:00 -4,4 -7,3 -1,3 0,7 1,4 4,5 9 5 21 11 WNW 1018,3 36 0 0,0
17.01.2021 03:00:00 -4,3 -7,3 -1,2 0,7 1,4 4,5 10 6 23 12 WNW 1018,4 41 0 0,0
17.01.2021 02:00:00 -4,3 -7,3 -1,2 0,6 1,4 4,5 15 8 26 14 W 1018,7 38 0 0,0
17.01.2021 01:00:00 -4,2 -7,1 -1,2 0,6 1,4 4,5 11 6 25 14 WNW 1019,3 36 0 0,0
17.01.2021 00:00:00 -4,2 -7,2 -1,1 0,6 1,4 4,5 13 7 26 14 WNW 1019,9 40 0 0,0
16.01.2021 23:00:00 -4,1 -7,0 -1,1 0,6 1,4 4,5 13 7 25 13 WNW 1019,9 36 0 0,0
16.01.2021 22:00:00 -4,1 -7,0 -1,1 0,6 1,4 4,5 14 8 26 14 W 1020,0 35 0 0,0
16.01.2021 21:00:00 -4,1 -6,8 -1,1 0,6 1,4 4,5 13 7 33 18 W 1020,1 28 0 0,0
16.01.2021 20:00:00 -4,2 -6,5 -1,0 0,6 1,4 4,5 15 8 28 15 W 1020,5 22 0 0,0
16.01.2021 19:00:00 -4,4 -6,5 -1,0 0,6 1,4 4,5 16 9 35 19 W 1020,8 16 0 0,0
16.01.2021 18:00:00 -4,4 -6,7 -1,0 0,6 1,4 4,5 18 10 30 16 W 1021,1 23 0 0,0
16.01.2021 17:00:00 -4,5 -7,1 -0,8 0,6 1,4 4,5 17 9 31 17 W 1021,3 22 0 0,0
16.01.2021 16:00:00 -4,5 -6,8 -0,5 0,6 1,4 4,5 19 10 32 17 W 1021,8 26 0 0,0
16.01.2021 15:00:00 -4,3 -6,8 -0,2 0,6 1,4 4,5 20 11 35 19 W 1022,1 12 0 0,0
16.01.2021 14:00:00 -4,1 -6,4 -0,1 0,6 1,4 4,5 16 8 31 17 W 1022,3 17 0 0,0
16.01.2021 13:00:00 -4,2 -6,0 0,0 0,6 1,4 4,5 17 9 31 17 W 1022,7 2,6 0 0,0
16.01.2021 12:00:00 -4,3 -6,4 -0,2 0,6 1,4 4,5 16 9 31 17 W 1023,7 13 0 0,0
16.01.2021 11:00:00 -5,0 -7,0 -0,6 0,6 1,4 4,5 15 8 27 15 W 1024,4 8 0 0,1
16.01.2021 10:00:00 -5,6 -7,8 -1,3 0,6 1,4 4,5 11 6 22 12 W 1024,9 4,3 0 0,0
16.01.2021 09:00:00 -5,8 -8,3 -2,0 0,6 1,4 4,6 14 8 23 12 W 1025,3 15 0 0,0
16.01.2021 08:00:00 -6,7 -8,7 -2,3 0,6 1,4 4,6 9 5 18 10 W 1025,3 51 0 0,0
16.01.2021 07:00:00 -6,0 -7,7 -1,8 0,6 1,4 4,6 10 5 21 12 W 1025,4 11 0 0,0
16.01.2021 06:00:00 -5,4 -7,0 -1,6 0,6 1,4 4,6 11 6 21 11 WNW 1025,5 28 0 0,0
16.01.2021 05:00:00 -5,4 -6,9 -1,6 0,6 1,4 4,6 8 4 19 11 WNW 1025,6 13 0 0,0
16.01.2021 04:00:00 -5,3 -7,0 -1,7 0,6 1,4 4,6 8 5 20 11 WNW 1025,6 17 0 0,0
16.01.2021 03:00:00 -5,2 -7,3 -1,7 0,6 1,4 4,6 9 5 21 12 NW 1025,7 8 0 0,0
16.01.2021 02:00:00 -5,1 -7,5 -1,7 0,6 1,4 4,6 10 5 21 11 NW 1025,7 62 0 0,0
16.01.2021 01:00:00 -4,6 -7,2 -1,5 0,6 1,4 4,6 11 6 23 12 NNW 1025,6 53 0 0,0
16.01.2021 00:00:00 -4,5 -7,0 -1,3 0,6 1,4 4,6 19 10 31 17 N 1025,4 52 0 0,0
15.01.2021 23:00:00 -4,0 -6,1 -0,9 0,6 1,4 4,6 16 8 39 21 N 1025,3 54 0 0,0
15.01.2021 22:00:00 -2,9 -4,7 -0,6 0,6 1,4 4,6 20 11 36 20 NNW 1024,8 7 0 0,0
15.01.2021 21:00:00 -2,5 -3,7 -0,5 0,5 1,3 4,6 14 8 23 12 N 1024,3 24 0 0,0
15.01.2021 20:00:00 -2,2 -3,2 -0,2 0,5 1,3 4,6 16 8 23 12 NNW 1023,8 17 0 0,0
15.01.2021 19:00:00 -2,1 -2,9 0,0 0,5 1,3 4,6 12 7 22 12 NNW 1023,6 16 0 0,2
15.01.2021 18:00:00 -2,1 -3,0 0,1 0,5 1,3 4,6 11 6 25 13 NW 1023,3 17 0 0,0
15.01.2021 17:00:00 -2,1 -3,3 0,1 0,5 1,3 4,6 10 6 24 13 NNW 1022,8 16 0 0,0
15.01.2021 16:00:00 -2,0 -3,5 0,1 0,5 1,3 4,6 12 6 29 15 NNW 1022,5 7 0 0,0
15.01.2021 15:00:00 -1,3 -2,7 0,2 0,5 1,3 4,6 12 7 22 12 NNW 1022,1 10 0 0,0
15.01.2021 14:00:00 -0,9 -2,4 0,2 0,5 1,3 4,6 11 6 29 16 NW 1021,7 23 0 0,0
15.01.2021 13:00:00 -0,7 -2,1 0,2 0,5 1,3 4,6 11 6 24 13 NNW 1021,7 5 0 0,3
15.01.2021 12:00:00 -1,2 -2,1 0,2 0,5 1,3 4,6 20 11 39 21 N 1021,8 1,3 0 0,6
15.01.2021 11:00:00 -0,4 -1,1 0,2 0,5 1,3 4,6 8 4 19 10 NNW 1021,6 1,7 0 0,6
15.01.2021 10:00:00 -0,8 -1,6 0,1 0,5 1,3 4,6 8 4 18 10 NW 1021,3 1,8 0 0,1
15.01.2021 09:00:00 -0,8 -1,6 -0,4 0,5 1,3 4,6 10 5 19 10 NNW 1021,2 12 0 0,0
15.01.2021 08:00:00 -0,7 -1,5 -0,5 0,5 1,3 4,6 10 5 22 12 NNW 1020,5 17 0 0,0
15.01.2021 07:00:00 -0,6 -1,2 -0,4 0,5 1,3 4,6 12 7 21 11 NNW 1020,0 13 0 0,0
15.01.2021 06:00:00 -0,6 -0,8 -0,4 0,5 1,3 4,6 11 6 22 12 NNW 1019,6 6 0 0,1
15.01.2021 05:00:00 -0,8 -1,2 -0,6 0,5 1,3 4,6 7 4 13 7 NW 1019,5 2,7 0 0,1
15.01.2021 04:00:00 -0,8 -1,2 -0,7 0,5 1,3 4,6 6 3 13 7 NW 1019,6 3,2 0 0,1
15.01.2021 03:00:00 -0,7 -1,3 -0,8 0,5 1,3 4,6 6 3 13 7 NW 1019,6 7 0 0,0
15.01.2021 02:00:00 -0,6 -1,3 -0,6 0,5 1,3 4,6 6 4 13 7 NW 1019,7 11 0 0,0
15.01.2021 01:00:00 -0,6 -1,4 -0,6 0,5 1,3 4,6 9 5 22 12 NNW 1019,3 12 0 0,0
15.01.2021 00:00:00 -0,5 -1,4 -0,5 0,5 1,3 4,6 9 5 18 10 NNW 1019,2 13 0 0,0
14.01.2021 23:00:00 -0,4 -1,4 -0,6 0,5 1,3 4,7 13 7 25 14 N 1019,2 14 0 0,0
14.01.2021 22:00:00 -0,2 -1,1 -0,2 0,5 1,3 4,6 17 9 26 14 N 1019,2 17 0 0,0
14.01.2021 21:00:00 -0,1 -0,8 -0,1 0,4 1,3 4,7 11 6 22 12 NNW 1018,7 14 0 0,0
14.01.2021 20:00:00 0,0 -0,7 0,0 0,4 1,3 4,7 14 8 27 14 NW 1018,4 17 0 0,0
14.01.2021 19:00:00 -0,1 -0,8 0,0 0,4 1,3 4,7 16 9 28 15 NW 1017,9 17 0 0,0
14.01.2021 18:00:00 -0,3 -1,0 -0,1 0,4 1,3 4,7 13 7 27 15 WNW 1017,5 6 0 0,0
14.01.2021 17:00:00 -0,3 -1,6 0,0 0,4 1,3 4,7 14 8 25 14 WNW 1017,2 13 0 0,1
14.01.2021 16:00:00 -0,3 -2,2 0,1 0,4 1,3 4,7 12 6 25 14 WNW 1016,8 23 0 0,0
14.01.2021 15:00:00 -0,2 -2,4 0,3 0,4 1,3 4,7 14 8 26 14 NW 1016,6 38 0 0,0
14.01.2021 14:00:00 -0,1 -2,5 0,3 0,4 1,3 4,7 13 7 30 16 NNW 1016,2 31 0 0,0
14.01.2021 13:00:00 0,0 -1,4 0,2 0,4 1,3 4,7 16 9 29 16 NNW 1015,3 20 0 0,0
14.01.2021 12:00:00 -0,1 -1,2 0,1 0,4 1,3 4,7 14 8 25 14 NNW 1014,7 17 0 0,0
14.01.2021 11:00:00 -0,7 -1,3 0,1 0,4 1,3 4,7 14 8 27 14 NNW 1013,7 16 0 0,0
14.01.2021 10:00:00 -1,2 -1,8 -0,1 0,4 1,3 4,7 12 7 25 13 NW 1012,4 1,4 0 0,0
14.01.2021 09:00:00 -1,2 -2,1 -0,7 0,4 1,3 4,7 16 9 29 16 NNW 1011,1 37 0 0,0
14.01.2021 08:00:00 -1,4 -2,3 -1,0 0,4 1,3 4,7 21 11 29 16 N 1009,3 29 0 0,0
14.01.2021 07:00:00 -1,6 -2,2 -1,0 0,4 1,3 4,7 11 6 23 12 NNW 1007,5 3,4 0 0,0
14.01.2021 06:00:00 -1,6 -2,5 -1,0 0,4 1,3 4,7 16 8 35 19 W 1005,9 1,8 0 0,1
14.01.2021 05:00:00 -1,6 -2,8 -1,1 0,4 1,3 4,7 14 8 34 19 W 1005,1 7 0 0,1
14.01.2021 04:00:00 -1,7 -3,4 -1,5 0,4 1,3 4,7 18 10 35 19 W 1005,0 7 0 0,2
14.01.2021 03:00:00 -2,0 -2,7 -1,4 0,4 1,3 4,7 15 8 34 19 WSW 1004,9 1,2 0 0,2
14.01.2021 02:00:00 -0,8 -3,5 -1,8 0,4 1,3 4,7 17 9 44 24 WNW 1004,6 57 0 0,0
14.01.2021 01:00:00 -0,6 -3,3 -2,8 0,4 1,3 4,7 25 13 42 23 W 1004,3 69 0 0,0
14.01.2021 00:00:00 -0,4 -2,6 -2,0 0,4 1,3 4,7 25 14 41 22 W 1004,0 62 0 0,0
13.01.2021 23:00:00 -0,2 -2,0 -1,3 0,4 1,3 4,7 24 13 51 28 W 1004,0 51 0 0,0
13.01.2021 22:00:00 0,4 -1,4 -0,1 0,4 1,3 4,7 31 17 57 31 WSW 1003,6 2,6 0 0,0
13.01.2021 21:00:00 0,0 -1,5 -0,3 0,3 1,3 4,7 28 15 52 28 WSW 1004,3 1,7 0 0,0
13.01.2021 20:00:00 1,3 -2,7 0,2 0,4 1,3 4,7 29 15 45 24 WSW 1005,1 39 0 0,0
13.01.2021 19:00:00 1,3 -2,1 -0,2 0,3 1,3 4,8 23 12 40 22 WSW 1006,2 56 0 0,0
13.01.2021 18:00:00 1,5 -1,8 0,4 0,3 1,3 4,8 22 12 40 22 WSW 1007,2 35 0 0,0
13.01.2021 17:00:00 1,5 -1,6 0,4 0,3 1,3 4,8 19 11 41 22 WSW 1008,0 61 0 0,0
13.01.2021 16:00:00 1,3 -1,4 0,3 0,3 1,3 4,8 22 12 38 21 W 1008,7 46 1 0,0
13.01.2021 15:00:00 1,2 -1,1 0,7 0,3 1,3 4,8 24 13 42 23 W 1009,0 60 0 0,0
13.01.2021 14:00:00 1,3 -1,3 0,5 0,3 1,3 4,8 22 12 39 21 W 1009,1 40 0 0,0
13.01.2021 13:00:00 1,0 -1,0 0,6 0,3 1,3 4,8 21 11 40 22 W 1009,6 48 0 0,0
13.01.2021 12:00:00 1,0 -1,1 0,3 0,3 1,3 4,8 18 10 32 18 W 1010,3 19 0 0,0
13.01.2021 11:00:00 1,3 -1,8 0,3 0,3 1,3 4,8 21 11 32 17 W 1010,8 49 0 0,0
13.01.2021 10:00:00 0,8 -1,6 0,1 0,3 1,3 4,8 16 9 39 21 W 1010,9 36 0 0,0
13.01.2021 09:00:00 0,7 -1,5 -0,2 0,3 1,3 4,8 22 12 45 24 W 1010,7 41 0 0,0
13.01.2021 08:00:00 0,3 -1,3 -0,3 0,3 1,3 4,8 23 12 42 23 W 1010,3 38 0 0,1
13.01.2021 07:00:00 -0,2 -0,7 -0,2 0,3 1,3 4,8 23 13 42 23 W 1010,3 0,5 0 0,2
13.01.2021 06:00:00 0,8 -1,7 -0,4 0,3 1,3 4,8 26 14 44 24 W 1010,0 37 0 0,0

tt = temperature
td = dewpoint
tt 5cm = temperature 5cm
tt -5cm = temperature -5cm
tt -20cm = temperature -20cm
tt -100cm = temperature -100cm
ff = wind speed
fx = gusts
dd = wind direction
ppp = reduced air pressure
vv = visibility
sd = sunshine duration
rr = precipitation

Next stations